Regional Weather Roundup
Issued by NWS

Home | Current Version | Previous Version | Graphics & Text | Print | Product List | Glossary On
Versions: 1 2 3 4 5 6 7 8 9 10 11 12 13 14 15 16 17 18 19 20 21 22 23 24 25 26 27 28 29 30 31 32 33 34 35 36 37 38 39 40 41 42 43 44 45 46 47 48 49 50
357
ASUS44 KJAN 040110
RWRMS

MISSISSIPPI HOURLY WEATHER ROUNDUP
NATIONAL WEATHER SERVICE JACKSON MS
700 PM CST TUE MAR 03 2015

NOTE: "FAIR: INDICATES FEW OR NO CLOUDS BELOW 12,000 FEET WITH NO
SIGNIFICANT WEATHER AND/OR OBSTRUCTIONS TO VISIBILITY.

MSZ001>002-007>008-010>013-018>021-025>028-034>036-040200-
NORTHWEST MISSISSIPPI

CITY           SKY/WX    TMP DP  RH WIND       PRES   REMARKS
CLARKSDALE     CLOUDY    55  55 100 S5        29.93R VSB<1/4
CLEVELAND      FAIR      60  60 100 SW5       29.91S FOG
GREENWOOD      CLEAR     66  63  90 S8        29.93R
GREENVILLE     CLEAR     61  59  93 SW5       29.91R
OLIVE BRANCH   CLOUDY    57  57 100 S8        29.92R
OXFORD         FOG       61  61 100 S3        29.94R VSB 1
TUNICA         FOG       55  54  94 S5        29.92R VSB 1/2
$$

MSZ003>006-009-014>017-022>024-029>033-037>039-040200-
NORTHEAST MISSISSIPPI

CITY           SKY/WX    TMP DP  RH WIND       PRES   REMARKS
COLUMBUS AFB   PTCLDY    68  64  88 S7        29.95F
CORINTH        CLOUDY    61  59  94 S5        29.92S FOG
STARKVILLE     DRIZZLE   66  64  94 CALM      29.97S
TUPELO         FOG       61  60  97 CALM      29.94R VSB 1/4
$$

MSZ040-058-040200-
CENTRAL MISSISSIPPI

CITY           SKY/WX    TMP DP  RH WIND       PRES   REMARKS
JACKSON INTL   CLOUDY    68  66  93 S7        29.96R
JACKSON HAWKNS MOCLDY    68  66  93 SE9       29.95F
MERIDIAN KEY   CLOUDY    69  64  84 S10       29.99R
MERIDIAN NAS   PTCLDY    68  63  84 SE9       30.00R
VICKSBURG      MOCLDY    69  65  86 S3        29.92S
$$

MSZ059>079-040200-
SOUTH MISSISSIPPI

CITY           SKY/WX    TMP DP  RH WIND       PRES   REMARKS
BROOKHAVEN       N/A     68  68 100 S7        29.99S
HATTIESBURG    CLOUDY    70  64  81 S12       30.02R
MCCOMB         CLOUDY    68  66  93 MISG      29.99R
NATCHEZ        PTCLDY    73  63  68 S8        29.95R
PINE BELT      PTCLDY    68  63  83 S12       30.01S
$$

MSZ080>082-040200-
COASTAL MISSISSIPPI

CITY           SKY/WX    TMP DP  RH WIND       PRES   REMARKS
BAY ST LOUIS   CLOUDY    66  63  88 SE8       30.03S
BILOXI         MOCLDY    66  66 100 SE9       30.03S
PASCAGOULA     PTCLDY    64  62  93 SE8       30.05R
GULFPORT       MOCLDY    65  63  93 SE12      30.03S
$$



USA.gov is the U.S. government's official web portal to all federal, state and local government web resources and services.